{"data":{"norad_id":54090,"epoch":"2026-05-24T20:30:22.903200Z","epoch_age_seconds":94449,"freshness":"FRESH","line1":"1 54090U 22136AR  26144.85443175 -.00001427  00000+0 -71594-4 0  9991","line2":"2 54090  53.2147 352.1108 0001096  94.6576 265.4541 15.08833605198481","mean_motion":15.08833605,"eccentricity":0.0001096,"inclination_deg":53.2147,"raan_deg":352.1108,"arg_perigee_deg":94.6576,"mean_anomaly_deg":265.4541,"bstar":-7.1594e-5,"rev_number":19848,"period_min":95.437959177745,"perigee_km":539.0047341568,"apogee_km":540.52113782277,"semimajor_km":6917.8999359898,"source":"CELESTRAK","updated_at":"2026-05-25T13:38:17.655360Z"}}